• In Hungary
  • List of Countries
  • For 7 days
  • Water Temperature
  • Satellite Maps
  • Weather Map
  • News
  • Weather Widgets
  • user-avatar
    Login

    Hourly Weather Don Benito

    Today, 18 January, Thursday

    Time Temperature Precipitation Wind Pressure Humidity
    00:00 +7°C° 0 mm 2 mps 743 mmHg 81%
    01:00 +7°C° 0 mm 2 mps 742 mmHg 81%
    02:00 +7°C° 0 mm 2 mps 742 mmHg 81%
    03:00 +6°C° 0 mm 2 mps 742 mmHg 81%
    04:00 +6°C° 0 mm 2 mps 742 mmHg 82%
    05:00 +6°C° 0 mm 2 mps 742 mmHg 82%
    06:00 +6°C° 0 mm 2 mps 742 mmHg 82%
    07:00 +6°C° 0 mm 2 mps 742 mmHg 80%
    08:00 +7°C° 0 mm 2 mps 742 mmHg 78%
    09:00 +9°C° 0 mm 1 mps 742 mmHg 76%
    10:00 +10°C° 0 mm 2 mps 742 mmHg 68%
    11:00 +13°C° 0 mm 2 mps 742 mmHg 61%
    12:00 +15°C° 0 mm 2 mps 742 mmHg 53%
    13:00 +16°C° 0 mm 2 mps 741 mmHg 52%
    14:00 +17°C° 0 mm 2 mps 740 mmHg 51%
    15:00 +18°C° 0 mm 2 mps 740 mmHg 50%
    16:00 +16°C° 0 mm 2 mps 739 mmHg 58%
    17:00 +13°C° 0 mm 1 mps 739 mmHg 65%
    18:00 +11°C° 0 mm 1 mps 739 mmHg 72%
    19:00 +11°C° 0 mm 1 mps 739 mmHg 73%
    20:00 +10°C° 0 mm 1 mps 740 mmHg 73%
    21:00 +10°C° 0 mm 1 mps 740 mmHg 74%
    22:00 +9°C° 0 mm 1 mps 740 mmHg 74%
    23:00 +9°C° 0 mm 1 mps 740 mmHg 74%

    Tomorrow, 19 January, Friday

    Time Temperature Precipitation Wind Pressure Humidity
    00:00 +8°C° 0 mm 1 mps 740 mmHg 75%
    01:00 +8°C° 0 mm 1 mps 740 mmHg 75%
    02:00 +8°C° 0 mm 1 mps 740 mmHg 75%
    03:00 +7°C° 0 mm 1 mps 740 mmHg 75%
    04:00 +7°C° 0 mm 1 mps 740 mmHg 75%
    05:00 +7°C° 0 mm 1 mps 740 mmHg 75%
    06:00 +7°C° 0 mm 1 mps 740 mmHg 74%
    07:00 +8°C° 0 mm 1 mps 740 mmHg 73%
    08:00 +8°C° 0 mm 1 mps 741 mmHg 71%
    09:00 +9°C° 0 mm 1 mps 741 mmHg 70%
    10:00 +11°C° 0 mm 1 mps 742 mmHg 64%
    11:00 +13°C° 0 mm 1 mps 742 mmHg 57%
    12:00 +16°C° 0 mm 1 mps 742 mmHg 51%
    13:00 +16°C° 0 mm 2 mps 742 mmHg 51%
    14:00 +17°C° 0 mm 2 mps 742 mmHg 52%
    15:00 +17°C° 0 mm 2 mps 741 mmHg 52%
    16:00 +16°C° 0 mm 2 mps 742 mmHg 60%
    17:00 +14°C° 0 mm 2 mps 742 mmHg 68%
    18:00 +12°C° 0 mm 1 mps 742 mmHg 76%
    19:00 +11°C° 0 mm 1 mps 743 mmHg 78%
    20:00 +10°C° 0 mm 1 mps 744 mmHg 81%
    21:00 +9°C° 0 mm 1 mps 744 mmHg 84%
    22:00 +9°C° 0 mm 1 mps 744 mmHg 84%
    23:00 +9°C° 0 mm 1 mps 744 mmHg 84%

    Day after tomorrow, 20 January, Saturday

    Time Temperature Precipitation Wind Pressure Humidity
    00:00 +8°C° 0 mm 1 mps 744 mmHg 85%
    01:00 +8°C° 0 mm 1 mps 744 mmHg 85%
    02:00 +7°C° 0 mm 1 mps 744 mmHg 85%
    03:00 +7°C° 0 mm 1 mps 744 mmHg 85%
    04:00 +7°C° 0 mm 1 mps 745 mmHg 85%
    05:00 +6°C° 0 mm 1 mps 745 mmHg 85%
    06:00 +6°C° 0 mm 1 mps 745 mmHg 84%
    07:00 +7°C° 0 mm 1 mps 745 mmHg 81%
    08:00 +8°C° 0 mm 1 mps 746 mmHg 77%
    09:00 +9°C° 0 mm 1 mps 746 mmHg 74%
    10:00 +11°C° 0 mm 1 mps 746 mmHg 65%
    11:00 +13°C° 0 mm 1 mps 746 mmHg 57%
    12:00 +15°C° 0 mm 2 mps 746 mmHg 49%
    13:00 +15°C° 0 mm 2 mps 746 mmHg 50%
    14:00 +16°C° 0 mm 3 mps 745 mmHg 51%
    15:00 +17°C° 0 mm 3 mps 745 mmHg 52%
    16:00 +14°C° 0 mm 3 mps 745 mmHg 59%
    17:00 +13°C° 0 mm 2 mps 745 mmHg 66%
    18:00 +10°C° 0 mm 2 mps 746 mmHg 73%
    19:00 +10°C° 0 mm 2 mps 746 mmHg 76%
    20:00 +10°C° 0 mm 1 mps 747 mmHg 78%
    21:00 +10°C° 0 mm 1 mps 747 mmHg 80%
    22:00 +9°C° 0 mm 1 mps 747 mmHg 82%
    23:00 +9°C° 0 mm 1 mps 747 mmHg 84%

    21 January, Sunday

    Time Temperature Precipitation Wind Pressure Humidity
    00:00 +9°C° 0 mm 1 mps 747 mmHg 86%
    01:00 +9°C° 0 mm 1 mps 747 mmHg 87%
    02:00 +8°C° 0 mm 1 mps 747 mmHg 89%
    03:00 +8°C° 0 mm 1 mps 747 mmHg 90%
    04:00 +7°C° 0 mm 0 mps 747 mmHg 91%
    05:00 +7°C° 0 mm 0 mps 747 mmHg 91%
    06:00 +7°C° 0 mm 0 mps 747 mmHg 92%
    07:00 +7°C° 0 mm 0 mps 747 mmHg 90%
    08:00 +8°C° 0 mm 0 mps 748 mmHg 88%
    09:00 +9°C° 0 mm 0 mps 748 mmHg 86%
    10:00 +11°C° 0 mm 0 mps 748 mmHg 79%
    11:00 +13°C° 0 mm 0 mps 748 mmHg 73%
    12:00 +15°C° 0 mm 0 mps 748 mmHg 67%
    13:00 +18°C° 0 mm 1 mps 747 mmHg 65%
    14:00 +18°C° 0 mm 1 mps 747 mmHg 63%
    15:00 +19°C° 0 mm 1 mps 746 mmHg 62%
    16:00 +16°C° 0 mm 1 mps 746 mmHg 69%
    17:00 +15°C° 0 mm 1 mps 746 mmHg 77%
    18:00 +13°C° 0 mm 1 mps 746 mmHg 84%
    19:00 +12°C° 0 mm 1 mps 747 mmHg 85%
    20:00 +11°C° 0 mm 0 mps 747 mmHg 86%
    21:00 +10°C° 0 mm 0 mps 748 mmHg 87%
    22:00 +10°C° 0 mm 0 mps 748 mmHg 87%
    23:00 +9°C° 0 mm 0 mps 747 mmHg 88%

    22 January, Monday

    Time Temperature Precipitation Wind Pressure Humidity
    00:00 +9°C° 0 mm 0 mps 747 mmHg 88%
    01:00 +9°C° 0 mm 0 mps 747 mmHg 89%
    02:00 +8°C° 0 mm 0 mps 747 mmHg 89%
    03:00 +8°C° 0 mm 0 mps 747 mmHg 90%
    04:00 +8°C° 0 mm 0 mps 746 mmHg 90%
    05:00 +7°C° 0 mm 0 mps 746 mmHg 90%
    06:00 +7°C° 0 mm 0 mps 746 mmHg 90%
    07:00 +8°C° 0 mm 0 mps 747 mmHg 88%
    08:00 +9°C° 0 mm 0 mps 747 mmHg 86%
    09:00 +10°C° 0 mm 0 mps 747 mmHg 84%
    10:00 +13°C° 0 mm 1 mps 747 mmHg 76%
    11:00 +15°C° 0 mm 1 mps 747 mmHg 69%
    12:00 +18°C° 0 mm 1 mps 747 mmHg 61%
    13:00 +18°C° 0 mm 1 mps 747 mmHg 58%
    14:00 +19°C° 0 mm 1 mps 746 mmHg 56%
    15:00 +20°C° 0 mm 1 mps 746 mmHg 53%
    16:00 +18°C° 0 mm 1 mps 746 mmHg 61%
    17:00 +15°C° 0 mm 1 mps 746 mmHg 69%
    18:00 +12°C° 0 mm 1 mps 746 mmHg 77%
    19:00 +12°C° 0 mm 1 mps 746 mmHg 78%
    20:00 +10°C° 0 mm 0 mps 746 mmHg 79%
    21:00 +10°C° 0 mm 0 mps 747 mmHg 81%
    22:00 +9°C° 0 mm 0 mps 747 mmHg 81%
    23:00 +9°C° 0 mm 0 mps 747 mmHg 82%

    23 January, Tuesday

    Time Temperature Precipitation Wind Pressure Humidity
    00:00 +9°C° 0 mm 0 mps 747 mmHg 83%
    01:00 +9°C° 0 mm 1 mps 746 mmHg 84%
    02:00 +9°C° 0 mm 1 mps 746 mmHg 84%
    03:00 +9°C° 0 mm 1 mps 746 mmHg 85%
    04:00 +9°C° 0 mm 1 mps 746 mmHg 85%
    05:00 +8°C° 0 mm 1 mps 746 mmHg 86%
    06:00 +8°C° 0 mm 1 mps 746 mmHg 86%
    07:00 +9°C° 0 mm 1 mps 746 mmHg 84%
    08:00 +10°C° 0 mm 1 mps 747 mmHg 82%
    09:00 +11°C° 0 mm 1 mps 747 mmHg 79%
    10:00 +13°C° 0 mm 1 mps 747 mmHg 71%
    11:00 +15°C° 0 mm 2 mps 747 mmHg 62%
    12:00 +18°C° 0 mm 2 mps 746 mmHg 53%
    13:00 +18°C° 0 mm 2 mps 746 mmHg 52%
    14:00 +19°C° 0 mm 2 mps 745 mmHg 50%
    15:00 +20°C° 0 mm 2 mps 745 mmHg 48%
    16:00 +19°C° 0 mm 1 mps 745 mmHg 56%
    17:00 +16°C° 0 mm 1 mps 744 mmHg 63%
    18:00 +13°C° 0 mm 1 mps 744 mmHg 71%
    19:00 +13°C° 0 mm 1 mps 744 mmHg 72%
    20:00 +12°C° 0 mm 1 mps 745 mmHg 73%
    21:00 +12°C° 0 mm 1 mps 745 mmHg 74%
    22:00 +11°C° 0 mm 1 mps 745 mmHg 74%
    23:00 +11°C° 0 mm 1 mps 744 mmHg 75%
    Show more